contact:dominique.lefevre@mio.osupytheas.fr, maurice.libes@osupytheas.fr, didier.mallarino@osupytheas.fr
Project:EMSO http://www.emso-fr.org/EMSO-France
Depth: 2436.0 m
Title:EMSO Ligure Ouest : Data MII capteur MICROCAT
DateTime_Computer,Latitude,Longitude,Temperature,Conductivity,Pressure,DateTime_Instrument
DateTime_Computer,Latitude,Longitude,degC,S m-1,dbar,DateTime_Instrument
2022-07-14T00:01:41Z,42.805,6.029,13.3057,4.60068,2470.591,2022-7-14T02:03:27Z
2022-07-14T00:04:44Z,42.805,6.029,13.3062,4.60074,2470.614,2022-7-14T02:06:30Z
2022-07-14T00:07:47Z,42.805,6.029,13.3085,4.60066,2470.591,2022-7-14T02:09:33Z
2022-07-14T00:10:50Z,42.805,6.029,13.3085,4.60062,2470.591,2022-7-14T02:12:36Z
2022-07-14T00:13:53Z,42.805,6.029,13.3078,4.60076,2470.6,2022-7-14T02:15:39Z
2022-07-14T00:16:56Z,42.805,6.029,13.3093,4.60077,2470.591,2022-7-14T02:18:43Z
2022-07-14T00:20:00Z,42.805,6.029,13.3091,4.60074,2470.591,2022-7-14T02:21:46Z
2022-07-14T00:23:03Z,42.805,6.029,13.3062,4.60074,2470.553,2022-7-14T02:24:49Z
2022-07-14T00:26:06Z,42.805,6.029,13.3073,4.60084,2470.553,2022-7-14T02:27:52Z
2022-07-14T00:29:09Z,42.805,6.029,13.3072,4.60109,2470.591,2022-7-14T02:30:55Z
2022-07-14T00:32:12Z,42.805,6.029,13.3077,4.60074,2470.577,2022-7-14T02:33:58Z
2022-07-14T00:35:15Z,42.805,6.029,13.3089,4.60063,2470.591,2022-7-14T02:37:01Z
2022-07-14T00:38:18Z,42.805,6.029,13.3078,4.60094,2470.553,2022-7-14T02:40:04Z
2022-07-14T00:41:21Z,42.805,6.029,13.3063,4.60088,2470.567,2022-7-14T02:43:08Z
2022-07-14T00:44:25Z,42.805,6.029,13.3077,4.60095,2470.567,2022-7-14T02:46:11Z
2022-07-14T00:47:28Z,42.805,6.029,13.3078,4.60092,2470.553,2022-7-14T02:49:14Z
2022-07-14T00:50:31Z,42.805,6.029,13.3095,4.60094,2470.516,2022-7-14T02:52:17Z
2022-07-14T00:53:34Z,42.805,6.029,13.3079,4.60089,2470.53,2022-7-14T02:55:20Z
2022-07-14T00:56:37Z,42.805,6.029,13.3084,4.60125,2470.553,2022-7-14T02:58:23Z
2022-07-14T00:59:40Z,42.805,6.029,13.3083,4.60081,2470.53,2022-7-14T03:01:26Z
2022-07-14T01:02:43Z,42.805,6.029,13.3098,4.60062,2470.544,2022-7-14T03:04:29Z
2022-07-14T01:05:46Z,42.805,6.029,13.3084,4.60064,2470.567,2022-7-14T03:07:33Z
2022-07-14T01:08:50Z,42.805,6.029,13.3082,4.60078,2470.53,2022-7-14T03:10:36Z
2022-07-14T01:11:53Z,42.805,6.029,13.3078,4.60076,2470.53,2022-7-14T03:13:39Z
2022-07-14T01:14:56Z,42.805,6.029,13.3051,4.60077,2470.544,2022-7-14T03:16:42Z
2022-07-14T01:17:59Z,42.805,6.029,13.3041,4.60067,2470.544,2022-7-14T03:19:45Z
2022-07-14T01:21:02Z,42.805,6.029,13.3048,4.60063,2470.544,2022-7-14T03:22:48Z
2022-07-14T01:24:05Z,42.805,6.029,13.3058,4.60067,2470.53,2022-7-14T03:25:51Z
2022-07-14T01:27:08Z,42.805,6.029,13.3070,4.60084,2470.544,2022-7-14T03:28:54Z
2022-07-14T01:30:11Z,42.805,6.029,13.3078,4.60070,2470.53,2022-7-14T03:31:58Z
2022-07-14T01:33:15Z,42.805,6.029,13.3070,4.60091,2470.544,2022-7-14T03:35:01Z
2022-07-14T01:36:18Z,42.805,6.029,13.3060,4.60105,2470.544,2022-7-14T03:38:04Z
2022-07-14T01:39:21Z,42.805,6.029,13.3046,4.60123,2470.507,2022-7-14T03:41:07Z
2022-07-14T01:42:24Z,42.805,6.029,13.3063,4.60075,2470.553,2022-7-14T03:44:10Z
2022-07-14T01:45:27Z,42.805,6.029,13.3082,4.60089,2470.553,2022-7-14T03:47:13Z
2022-07-14T01:48:30Z,42.805,6.029,13.3106,4.60102,2470.544,2022-7-14T03:50:16Z
2022-07-14T01:51:33Z,42.805,6.029,13.3057,4.60093,2470.544,2022-7-14T03:53:19Z
2022-07-14T01:54:36Z,42.805,6.029,13.3058,4.60097,2470.544,2022-7-14T03:56:23Z
2022-07-14T01:57:40Z,42.805,6.029,13.3090,4.60074,2470.53,2022-7-14T03:59:26Z
2022-07-14T02:00:43Z,42.805,6.029,13.3100,4.60067,2470.544,2022-7-14T04:02:29Z
2022-07-14T02:03:46Z,42.805,6.029,13.3069,4.60112,2470.483,2022-7-14T04:05:32Z
2022-07-14T02:06:49Z,42.805,6.029,13.3055,4.60066,2470.497,2022-7-14T04:08:35Z
2022-07-14T02:09:52Z,42.805,6.029,13.3065,4.60093,2470.52,2022-7-14T04:11:38Z
2022-07-14T02:12:55Z,42.805,6.029,13.3048,4.60070,2470.544,2022-7-14T04:14:41Z
2022-07-14T02:15:58Z,42.805,6.029,13.3049,4.60080,2470.52,2022-7-14T04:17:44Z
2022-07-14T02:19:01Z,42.805,6.029,13.3047,4.60138,2470.544,2022-7-14T04:20:48Z
2022-07-14T02:22:04Z,42.805,6.029,13.3040,4.60119,2470.52,2022-7-14T04:23:51Z
2022-07-14T02:25:08Z,42.805,6.029,13.3051,4.60090,2470.52,2022-7-14T04:26:54Z
2022-07-14T02:28:11Z,42.805,6.029,13.3057,4.60072,2470.483,2022-7-14T04:29:57Z
2022-07-14T02:31:14Z,42.805,6.029,13.3059,4.60081,2470.52,2022-7-14T04:33:00Z
2022-07-14T02:34:17Z,42.805,6.029,13.3066,4.60092,2470.52,2022-7-14T04:36:03Z
2022-07-14T02:37:20Z,42.805,6.029,13.3069,4.60090,2470.52,2022-7-14T04:39:06Z
2022-07-14T02:40:23Z,42.805,6.029,13.3061,4.60089,2470.53,2022-7-14T04:42:09Z
2022-07-14T02:43:26Z,42.805,6.029,13.3070,4.60089,2470.507,2022-7-14T04:45:12Z
2022-07-14T02:46:29Z,42.805,6.029,13.3061,4.60084,2470.507,2022-7-14T04:48:16Z
2022-07-14T02:49:33Z,42.805,6.029,13.3053,4.60077,2470.544,2022-7-14T04:51:19Z
2022-07-14T02:52:36Z,42.805,6.029,13.3091,4.60080,2470.52,2022-7-14T04:54:22Z
2022-07-14T02:55:39Z,42.805,6.029,13.3077,4.60086,2470.474,2022-7-14T04:57:25Z
2022-07-14T02:58:42Z,42.805,6.029,13.3056,4.60107,2470.53,2022-7-14T05:00:28Z
2022-07-14T03:01:45Z,42.805,6.029,13.3065,4.60078,2470.52,2022-7-14T05:03:31Z
2022-07-14T03:04:48Z,42.805,6.029,13.3070,4.60096,2470.52,2022-7-14T05:06:34Z
2022-07-14T03:07:51Z,42.805,6.029,13.3080,4.60091,2470.544,2022-7-14T05:09:37Z
2022-07-14T03:10:54Z,42.805,6.029,13.3048,4.60102,2470.507,2022-7-14T05:12:41Z
2022-07-14T03:13:58Z,42.805,6.029,13.3051,4.60078,2470.567,2022-7-14T05:15:44Z
2022-07-14T03:17:01Z,42.805,6.029,13.3071,4.60087,2470.544,2022-7-14T05:18:47Z
2022-07-14T03:20:04Z,42.805,6.029,13.3056,4.60074,2470.53,2022-7-14T05:21:50Z
2022-07-14T03:23:07Z,42.805,6.029,13.3076,4.60068,2470.553,2022-7-14T05:24:53Z
2022-07-14T03:26:10Z,42.805,6.029,13.3067,4.60070,2470.544,2022-7-14T05:27:56Z
2022-07-14T03:29:13Z,42.805,6.029,13.3077,4.60087,2470.553,2022-7-14T05:30:59Z
2022-07-14T03:32:16Z,42.805,6.029,13.3069,4.60069,2470.544,2022-7-14T05:34:02Z
2022-07-14T03:35:19Z,42.805,6.029,13.3101,4.60091,2470.567,2022-7-14T05:37:06Z
2022-07-14T03:38:23Z,42.805,6.029,13.3083,4.60077,2470.507,2022-7-14T05:40:09Z
2022-07-14T03:41:26Z,42.805,6.029,13.3086,4.60077,2470.544,2022-7-14T05:43:12Z
2022-07-14T03:44:29Z,42.805,6.029,13.3051,4.60066,2470.567,2022-7-14T05:46:15Z
2022-07-14T03:47:32Z,42.805,6.029,13.3079,4.60068,2470.544,2022-7-14T05:49:18Z
2022-07-14T03:50:35Z,42.805,6.029,13.3098,4.60072,2470.577,2022-7-14T05:52:21Z
2022-07-14T03:53:38Z,42.805,6.029,13.3067,4.60081,2470.544,2022-7-14T05:55:24Z
2022-07-14T03:56:41Z,42.805,6.029,13.3041,4.60092,2470.553,2022-7-14T05:58:27Z
2022-07-14T03:59:44Z,42.805,6.029,13.3055,4.60108,2470.567,2022-7-14T06:01:31Z
2022-07-14T04:02:47Z,42.805,6.029,13.3056,4.60104,2470.567,2022-7-14T06:04:34Z
2022-07-14T04:05:51Z,42.805,6.029,13.3064,4.60112,2470.553,2022-7-14T06:07:37Z
2022-07-14T04:08:54Z,42.805,6.029,13.3078,4.60087,2470.567,2022-7-14T06:10:40Z
2022-07-14T04:11:57Z,42.805,6.029,13.3061,4.60080,2470.591,2022-7-14T06:13:43Z
2022-07-14T04:15:00Z,42.805,6.029,13.3047,4.60057,2470.53,2022-7-14T06:16:46Z
2022-07-14T04:18:03Z,42.805,6.029,13.3047,4.60078,2470.553,2022-7-14T06:19:49Z
2022-07-14T04:21:06Z,42.805,6.029,13.3054,4.60072,2470.6,2022-7-14T06:22:52Z
2022-07-14T04:24:09Z,42.805,6.029,13.3070,4.60074,2470.553,2022-7-14T06:25:56Z
2022-07-14T04:27:13Z,42.805,6.029,13.3050,4.60066,2470.614,2022-7-14T06:28:59Z
2022-07-14T04:30:16Z,42.805,6.029,13.3039,4.60091,2470.577,2022-7-14T06:32:02Z
2022-07-14T04:33:19Z,42.805,6.029,13.3069,4.60078,2470.553,2022-7-14T06:35:05Z
2022-07-14T04:36:22Z,42.805,6.029,13.3054,4.60093,2470.591,2022-7-14T06:38:08Z
2022-07-14T04:39:25Z,42.805,6.029,13.3046,4.60067,2470.591,2022-7-14T06:41:11Z
2022-07-14T04:42:28Z,42.805,6.029,13.3054,4.60066,2470.591,2022-7-14T06:44:14Z
2022-07-14T04:45:31Z,42.805,6.029,13.3040,4.60108,2470.567,2022-7-14T06:47:17Z
2022-07-14T04:48:34Z,42.805,6.029,13.3050,4.60064,2470.577,2022-7-14T06:50:20Z
2022-07-14T04:51:37Z,42.805,6.029,13.3046,4.60132,2470.614,2022-7-14T06:53:24Z
2022-07-14T04:54:41Z,42.805,6.029,13.3055,4.60092,2470.614,2022-7-14T06:56:27Z
2022-07-14T04:57:44Z,42.805,6.029,13.3043,4.60081,2470.614,2022-7-14T06:59:30Z
2022-07-14T05:00:47Z,42.805,6.029,13.3045,4.60076,2470.591,2022-7-14T07:02:33Z
2022-07-14T05:03:50Z,42.805,6.029,13.3048,4.60068,2470.637,2022-7-14T07:05:36Z
2022-07-14T05:06:53Z,42.805,6.029,13.3040,4.60076,2470.591,2022-7-14T07:08:39Z
2022-07-14T05:09:56Z,42.805,6.029,13.3060,4.60059,2470.624,2022-7-14T07:11:42Z
2022-07-14T05:12:59Z,42.805,6.029,13.3048,4.60068,2470.637,2022-7-14T07:14:45Z
2022-07-14T05:16:02Z,42.805,6.029,13.3070,4.60077,2470.614,2022-7-14T07:17:49Z
2022-07-14T05:19:06Z,42.805,6.029,13.3088,4.60070,2470.624,2022-7-14T07:20:52Z
2022-07-14T05:22:09Z,42.805,6.029,13.3041,4.60075,2470.6,2022-7-14T07:23:55Z
2022-07-14T05:25:12Z,42.805,6.029,13.3051,4.60071,2470.6,2022-7-14T07:26:58Z
2022-07-14T05:28:15Z,42.805,6.029,13.3054,4.60086,2470.6,2022-7-14T07:30:01Z
2022-07-14T05:31:18Z,42.805,6.029,13.3056,4.60071,2470.637,2022-7-14T07:33:04Z
2022-07-14T05:34:21Z,42.805,6.029,13.3050,4.60064,2470.624,2022-7-14T07:36:07Z
2022-07-14T05:37:24Z,42.805,6.029,13.3056,4.60077,2470.637,2022-7-14T07:39:10Z
2022-07-14T05:40:27Z,42.805,6.029,13.3070,4.60084,2470.646,2022-7-14T07:42:14Z
2022-07-14T05:43:31Z,42.805,6.029,13.3069,4.60093,2470.6,2022-7-14T07:45:17Z
2022-07-14T05:46:34Z,42.805,6.029,13.3048,4.60087,2470.6,2022-7-14T07:48:20Z
2022-07-14T05:49:37Z,42.805,6.029,13.3061,4.60082,2470.624,2022-7-14T07:51:23Z
2022-07-14T05:52:40Z,42.805,6.029,13.3063,4.60102,2470.661,2022-7-14T07:54:26Z
2022-07-14T05:55:43Z,42.805,6.029,13.3061,4.60076,2470.646,2022-7-14T07:57:29Z
2022-07-14T05:58:46Z,42.805,6.029,13.3053,4.60079,2470.614,2022-7-14T08:00:32Z
2022-07-14T06:01:49Z,42.805,6.029,13.3054,4.60069,2470.6,2022-7-14T08:03:35Z
2022-07-14T06:04:52Z,42.805,6.029,13.3069,4.60081,2470.624,2022-7-14T08:06:39Z
2022-07-14T06:07:55Z,42.805,6.029,13.3069,4.60089,2470.637,2022-7-14T08:09:42Z
2022-07-14T06:10:59Z,42.805,6.029,13.3051,4.60069,2470.646,2022-7-14T08:12:45Z
2022-07-14T06:14:02Z,42.805,6.029,13.3052,4.60081,2470.6,2022-7-14T08:15:48Z
2022-07-14T06:17:05Z,42.805,6.029,13.3068,4.60068,2470.646,2022-7-14T08:18:51Z
2022-07-14T06:20:08Z,42.805,6.029,13.3056,4.60080,2470.646,2022-7-14T08:21:54Z
2022-07-14T06:23:11Z,42.805,6.029,13.3068,4.60080,2470.661,2022-7-14T08:24:57Z
2022-07-14T06:26:14Z,42.805,6.029,13.3059,4.60080,2470.624,2022-7-14T08:28:00Z
2022-07-14T06:29:17Z,42.805,6.029,13.3045,4.60082,2470.624,2022-7-14T08:31:04Z
2022-07-14T06:32:20Z,42.805,6.029,13.3050,4.60077,2470.646,2022-7-14T08:34:07Z
2022-07-14T06:35:24Z,42.805,6.029,13.3047,4.60062,2470.646,2022-7-14T08:37:10Z
2022-07-14T06:38:27Z,42.805,6.029,13.3045,4.60069,2470.646,2022-7-14T08:40:13Z
2022-07-14T06:41:30Z,42.805,6.029,13.3043,4.60068,2470.646,2022-7-14T08:43:16Z
2022-07-14T06:44:33Z,42.805,6.029,13.3042,4.60069,2470.646,2022-7-14T08:46:19Z
2022-07-14T06:47:36Z,42.805,6.029,13.3048,4.60075,2470.637,2022-7-14T08:49:22Z
2022-07-14T06:50:39Z,42.805,6.029,13.3067,4.60066,2470.637,2022-7-14T08:52:25Z
2022-07-14T06:53:42Z,42.805,6.029,13.3049,4.60069,2470.646,2022-7-14T08:55:29Z
2022-07-14T06:56:45Z,42.805,6.029,13.3041,4.60081,2470.661,2022-7-14T08:58:32Z
2022-07-14T06:59:49Z,42.805,6.029,13.3043,4.60081,2470.637,2022-7-14T09:01:35Z
2022-07-14T07:02:52Z,42.805,6.029,13.3048,4.60076,2470.661,2022-7-14T09:04:38Z
2022-07-14T07:05:55Z,42.805,6.029,13.3051,4.60067,2470.624,2022-7-14T09:07:41Z
2022-07-14T07:08:58Z,42.805,6.029,13.3040,4.60080,2470.646,2022-7-14T09:10:44Z
2022-07-14T07:12:01Z,42.805,6.029,13.3040,4.60074,2470.67,2022-7-14T09:13:47Z
2022-07-14T07:15:04Z,42.805,6.029,13.3033,4.60068,2470.684,2022-7-14T09:16:50Z
2022-07-14T07:18:07Z,42.805,6.029,13.3042,4.60074,2470.684,2022-7-14T09:19:53Z
2022-07-14T07:21:10Z,42.805,6.029,13.3056,4.60067,2470.661,2022-7-14T09:22:57Z
2022-07-14T07:24:14Z,42.805,6.029,13.3046,4.60071,2470.646,2022-7-14T09:26:00Z
2022-07-14T07:27:17Z,42.805,6.029,13.3051,4.60079,2470.624,2022-7-14T09:29:03Z
2022-07-14T07:30:20Z,42.805,6.029,13.3048,4.60095,2470.646,2022-7-14T09:32:06Z
2022-07-14T07:33:23Z,42.805,6.029,13.3065,4.60064,2470.646,2022-7-14T09:35:09Z
2022-07-14T07:36:26Z,42.805,6.029,13.3050,4.60058,2470.646,2022-7-14T09:38:12Z
2022-07-14T07:39:29Z,42.805,6.029,13.3054,4.60075,2470.646,2022-7-14T09:41:15Z
2022-07-14T07:42:32Z,42.805,6.029,13.3051,4.60069,2470.637,2022-7-14T09:44:18Z
2022-07-14T07:45:35Z,42.805,6.029,13.3035,4.60060,2470.624,2022-7-14T09:47:22Z
2022-07-14T07:48:39Z,42.805,6.029,13.3034,4.60063,2470.646,2022-7-14T09:50:25Z
2022-07-14T07:51:42Z,42.805,6.029,13.3034,4.60066,2470.637,2022-7-14T09:53:28Z
2022-07-14T07:54:45Z,42.805,6.029,13.3039,4.60068,2470.661,2022-7-14T09:56:31Z
2022-07-14T07:57:48Z,42.805,6.029,13.3047,4.60066,2470.637,2022-7-14T09:59:34Z
2022-07-14T08:00:51Z,42.805,6.029,13.3041,4.60068,2470.624,2022-7-14T10:02:37Z
2022-07-14T08:03:54Z,42.805,6.029,13.3039,4.60068,2470.646,2022-7-14T10:05:40Z
2022-07-14T08:06:57Z,42.805,6.029,13.3046,4.60068,2470.6,2022-7-14T10:08:43Z
2022-07-14T08:10:00Z,42.805,6.029,13.3069,4.60067,2470.661,2022-7-14T10:11:47Z
2022-07-14T08:13:03Z,42.805,6.029,13.3052,4.60057,2470.624,2022-7-14T10:14:50Z
2022-07-14T08:16:07Z,42.805,6.029,13.3051,4.60056,2470.637,2022-7-14T10:17:53Z
2022-07-14T08:19:10Z,42.805,6.029,13.3040,4.60056,2470.646,2022-7-14T10:20:56Z
2022-07-14T08:22:13Z,42.805,6.029,13.3031,4.60067,2470.661,2022-7-14T10:23:59Z
2022-07-14T08:25:16Z,42.805,6.029,13.3045,4.60064,2470.624,2022-7-14T10:27:02Z
2022-07-14T08:28:19Z,42.805,6.029,13.3036,4.60067,2470.624,2022-7-14T10:30:05Z
2022-07-14T08:31:22Z,42.805,6.029,13.3043,4.60055,2470.637,2022-7-14T10:33:08Z
2022-07-14T08:34:25Z,42.805,6.029,13.3031,4.60060,2470.614,2022-7-14T10:36:12Z
2022-07-14T08:37:28Z,42.805,6.029,13.3043,4.60069,2470.624,2022-7-14T10:39:15Z
2022-07-14T08:40:32Z,42.805,6.029,13.3040,4.60064,2470.6,2022-7-14T10:42:18Z
2022-07-14T08:43:35Z,42.805,6.029,13.3043,4.60065,2470.637,2022-7-14T10:45:21Z
2022-07-14T08:46:38Z,42.805,6.029,13.3035,4.60068,2470.614,2022-7-14T10:48:24Z
2022-07-14T08:49:41Z,42.805,6.029,13.3037,4.60072,2470.6,2022-7-14T10:51:27Z
2022-07-14T08:52:44Z,42.805,6.029,13.3036,4.60064,2470.624,2022-7-14T10:54:30Z
2022-07-14T08:55:47Z,42.805,6.029,13.3039,4.60066,2470.577,2022-7-14T10:57:33Z
2022-07-14T08:58:50Z,42.805,6.029,13.3036,4.60062,2470.637,2022-7-14T11:00:37Z
2022-07-14T09:01:53Z,42.805,6.029,13.3036,4.60060,2470.577,2022-7-14T11:03:40Z
2022-07-14T09:04:57Z,42.805,6.029,13.3061,4.60062,2470.637,2022-7-14T11:06:43Z
2022-07-14T09:08:00Z,42.805,6.029,13.3039,4.60067,2470.624,2022-7-14T11:09:46Z
2022-07-14T09:11:03Z,42.805,6.029,13.3036,4.60062,2470.6,2022-7-14T11:12:49Z
2022-07-14T09:14:06Z,42.805,6.029,13.3033,4.60059,2470.614,2022-7-14T11:15:52Z
2022-07-14T09:17:09Z,42.805,6.029,13.3029,4.60063,2470.614,2022-7-14T11:18:55Z
2022-07-14T09:20:12Z,42.805,6.029,13.3037,4.60064,2470.591,2022-7-14T11:21:58Z
2022-07-14T09:23:15Z,42.805,6.029,13.3037,4.60063,2470.624,2022-7-14T11:25:02Z
2022-07-14T09:26:19Z,42.805,6.029,13.3043,4.60069,2470.6,2022-7-14T11:28:05Z
2022-07-14T09:29:22Z,42.805,6.029,13.3053,4.60067,2470.591,2022-7-14T11:31:08Z
2022-07-14T09:32:25Z,42.805,6.029,13.3046,4.60061,2470.591,2022-7-14T11:34:11Z
2022-07-14T09:35:28Z,42.805,6.029,13.3040,4.60072,2470.577,2022-7-14T11:37:14Z
2022-07-14T09:38:31Z,42.805,6.029,13.3066,4.60077,2470.577,2022-7-14T11:40:17Z
2022-07-14T09:41:34Z,42.805,6.029,13.3051,4.60069,2470.6,2022-7-14T11:43:20Z
2022-07-14T09:44:37Z,42.805,6.029,13.3049,4.60072,2470.553,2022-7-14T11:46:23Z
2022-07-14T09:47:40Z,42.805,6.029,13.3044,4.60059,2470.591,2022-7-14T11:49:27Z
2022-07-14T09:50:44Z,42.805,6.029,13.3036,4.60074,2470.577,2022-7-14T11:52:30Z
2022-07-14T09:53:47Z,42.805,6.029,13.3035,4.60064,2470.6,2022-7-14T11:55:33Z
2022-07-14T09:56:50Z,42.805,6.029,13.3041,4.60072,2470.544,2022-7-14T11:58:36Z
2022-07-14T09:59:53Z,42.805,6.029,13.3044,4.60066,2470.544,2022-7-14T12:01:39Z
2022-07-14T10:02:56Z,42.805,6.029,13.3042,4.60067,2470.577,2022-7-14T12:04:42Z
2022-07-14T10:05:59Z,42.805,6.029,13.3044,4.60074,2470.553,2022-7-14T12:07:45Z
2022-07-14T10:09:02Z,42.805,6.029,13.3046,4.60067,2470.553,2022-7-14T12:10:48Z
2022-07-14T10:12:05Z,42.805,6.029,13.3044,4.60069,2470.53,2022-7-14T12:13:52Z
2022-07-14T10:15:09Z,42.805,6.029,13.3040,4.60074,2470.577,2022-7-14T12:16:55Z
2022-07-14T10:18:12Z,42.805,6.029,13.3054,4.60078,2470.567,2022-7-14T12:19:58Z
2022-07-14T10:21:15Z,42.805,6.029,13.3048,4.60076,2470.567,2022-7-14T12:23:01Z
2022-07-14T10:24:18Z,42.805,6.029,13.3052,4.60072,2470.553,2022-7-14T12:26:04Z
2022-07-14T10:27:21Z,42.805,6.029,13.3043,4.60072,2470.553,2022-7-14T12:29:07Z
2022-07-14T10:30:24Z,42.805,6.029,13.3044,4.60072,2470.553,2022-7-14T12:32:10Z
2022-07-14T10:33:27Z,42.805,6.029,13.3046,4.60068,2470.544,2022-7-14T12:35:13Z
2022-07-14T10:36:30Z,42.805,6.029,13.3058,4.60072,2470.567,2022-7-14T12:38:17Z
2022-07-14T10:39:34Z,42.805,6.029,13.3043,4.60074,2470.53,2022-7-14T12:41:20Z
2022-07-14T10:42:37Z,42.805,6.029,13.3049,4.60079,2470.53,2022-7-14T12:44:23Z
2022-07-14T10:45:40Z,42.805,6.029,13.3064,4.60075,2470.53,2022-7-14T12:47:26Z
2022-07-14T10:48:43Z,42.805,6.029,13.3042,4.60065,2470.53,2022-7-14T12:50:29Z
2022-07-14T10:51:46Z,42.805,6.029,13.3051,4.60082,2470.53,2022-7-14T12:53:32Z
2022-07-14T10:54:49Z,42.805,6.029,13.3069,4.60078,2470.53,2022-7-14T12:56:35Z
2022-07-14T10:57:52Z,42.805,6.029,13.3060,4.60062,2470.52,2022-7-14T12:59:38Z
2022-07-14T11:00:55Z,42.805,6.029,13.3039,4.60078,2470.53,2022-7-14T13:02:42Z
2022-07-14T11:03:59Z,42.805,6.029,13.3046,4.60073,2470.507,2022-7-14T13:05:45Z
2022-07-14T11:07:02Z,42.805,6.029,13.3054,4.60072,2470.544,2022-7-14T13:08:48Z
2022-07-14T11:10:05Z,42.805,6.029,13.3046,4.60064,2470.507,2022-7-14T13:11:51Z
2022-07-14T11:13:08Z,42.805,6.029,13.3044,4.60069,2470.52,2022-7-14T13:14:54Z
2022-07-14T11:16:11Z,42.805,6.029,13.3052,4.60070,2470.507,2022-7-14T13:17:57Z
2022-07-14T11:19:14Z,42.805,6.029,13.3051,4.60082,2470.53,2022-7-14T13:21:00Z
2022-07-14T11:22:17Z,42.805,6.029,13.3047,4.60070,2470.52,2022-7-14T13:24:04Z
2022-07-14T11:25:20Z,42.805,6.029,13.3063,4.60088,2470.53,2022-7-14T13:27:07Z
2022-07-14T11:28:24Z,42.805,6.029,13.3057,4.60079,2470.52,2022-7-14T13:30:10Z
2022-07-14T11:31:27Z,42.805,6.029,13.3055,4.60092,2470.52,2022-7-14T13:33:13Z
2022-07-14T11:34:30Z,42.805,6.029,13.3052,4.60093,2470.497,2022-7-14T13:36:16Z
2022-07-14T11:37:33Z,42.805,6.029,13.3051,4.60082,2470.53,2022-7-14T13:39:19Z
2022-07-14T11:40:36Z,42.805,6.029,13.3060,4.60092,2470.53,2022-7-14T13:42:22Z
2022-07-14T11:43:39Z,42.805,6.029,13.3067,4.60110,2470.53,2022-7-14T13:45:25Z
2022-07-14T11:46:42Z,42.805,6.029,13.3084,4.60076,2470.544,2022-7-14T13:48:29Z
2022-07-14T11:49:45Z,42.805,6.029,13.3048,4.60087,2470.507,2022-7-14T13:51:32Z
2022-07-14T11:52:49Z,42.805,6.029,13.3053,4.60077,2470.483,2022-7-14T13:54:35Z
2022-07-14T11:55:52Z,42.805,6.029,13.3063,4.60076,2470.483,2022-7-14T13:57:38Z
2022-07-14T11:58:55Z,42.805,6.029,13.3046,4.60110,2470.474,2022-7-14T14:00:41Z
2022-07-14T12:01:58Z,42.805,6.029,13.3063,4.60071,2470.483,2022-7-14T14:03:44Z
2022-07-14T12:05:01Z,42.805,6.029,13.3056,4.60082,2470.507,2022-7-14T14:06:47Z
2022-07-14T12:08:04Z,42.805,6.029,13.3056,4.60075,2470.474,2022-7-14T14:09:50Z
2022-07-14T12:11:07Z,42.805,6.029,13.3075,4.60070,2470.437,2022-7-14T14:12:54Z
2022-07-14T12:14:10Z,42.805,6.029,13.3069,4.60084,2470.497,2022-7-14T14:15:57Z
2022-07-14T12:17:14Z,42.805,6.029,13.3062,4.60085,2470.497,2022-7-14T14:19:00Z
2022-07-14T12:20:17Z,42.805,6.029,13.3058,4.60137,2470.437,2022-7-14T14:22:03Z
2022-07-14T12:23:20Z,42.805,6.029,13.3084,4.60086,2470.45,2022-7-14T14:25:06Z
2022-07-14T12:26:23Z,42.805,6.029,13.3097,4.60074,2470.46,2022-7-14T14:28:09Z
2022-07-14T12:29:26Z,42.805,6.029,13.3070,4.60087,2470.474,2022-7-14T14:31:12Z
2022-07-14T12:32:29Z,42.805,6.029,13.3058,4.60081,2470.413,2022-7-14T14:34:15Z
2022-07-14T12:35:32Z,42.805,6.029,13.3063,4.60094,2470.437,2022-7-14T14:37:19Z
2022-07-14T12:38:35Z,42.805,6.029,13.3063,4.60113,2470.474,2022-7-14T14:40:22Z
2022-07-14T12:41:39Z,42.805,6.029,13.3066,4.60101,2470.474,2022-7-14T14:43:25Z
2022-07-14T12:44:42Z,42.805,6.029,13.3072,4.60078,2470.474,2022-7-14T14:46:28Z
2022-07-14T12:47:45Z,42.805,6.029,13.3086,4.60069,2470.46,2022-7-14T14:49:31Z
2022-07-14T12:50:48Z,42.805,6.029,13.3077,4.60081,2470.413,2022-7-14T14:52:34Z
2022-07-14T12:53:51Z,42.805,6.029,13.3078,4.60079,2470.474,2022-7-14T14:55:37Z
2022-07-14T12:56:54Z,42.805,6.029,13.3094,4.60072,2470.497,2022-7-14T14:58:40Z
2022-07-14T12:59:57Z,42.805,6.029,13.3088,4.60081,2470.474,2022-7-14T15:01:44Z
2022-07-14T13:03:00Z,42.805,6.029,13.3098,4.60076,2470.45,2022-7-14T15:04:47Z
2022-07-14T13:06:04Z,42.805,6.029,13.3099,4.60072,2470.45,2022-7-14T15:07:50Z
2022-07-14T13:09:07Z,42.805,6.029,13.3093,4.60075,2470.483,2022-7-14T15:10:53Z
2022-07-14T13:12:10Z,42.805,6.029,13.3085,4.60084,2470.437,2022-7-14T15:13:56Z
2022-07-14T13:15:13Z,42.805,6.029,13.3086,4.60095,2470.46,2022-7-14T15:16:59Z
2022-07-14T13:18:16Z,42.805,6.029,13.3082,4.60074,2470.413,2022-7-14T15:20:02Z
2022-07-14T13:21:19Z,42.805,6.029,13.3080,4.60068,2470.437,2022-7-14T15:23:05Z
2022-07-14T13:24:22Z,42.805,6.029,13.3093,4.60069,2470.437,2022-7-14T15:26:09Z
2022-07-14T13:27:25Z,42.805,6.029,13.3106,4.60067,2470.45,2022-7-14T15:29:12Z
2022-07-14T13:30:29Z,42.805,6.029,13.3106,4.60067,2470.45,2022-7-14T15:32:15Z
2022-07-14T13:33:32Z,42.805,6.029,13.3089,4.60089,2470.437,2022-7-14T15:35:18Z
2022-07-14T13:36:35Z,42.805,6.029,13.3083,4.60090,2470.45,2022-7-14T15:38:21Z
2022-07-14T13:39:38Z,42.805,6.029,13.3091,4.60073,2470.474,2022-7-14T15:41:24Z
2022-07-14T13:42:41Z,42.805,6.029,13.3096,4.60110,2470.437,2022-7-14T15:44:27Z
2022-07-14T13:45:44Z,42.805,6.029,13.3093,4.60111,2470.45,2022-7-14T15:47:30Z
2022-07-14T13:48:47Z,42.805,6.029,13.3091,4.60117,2470.474,2022-7-14T15:50:34Z
2022-07-14T13:51:50Z,42.805,6.029,13.3089,4.60095,2470.437,2022-7-14T15:53:37Z
2022-07-14T13:54:54Z,42.805,6.029,13.3086,4.60108,2470.45,2022-7-14T15:56:40Z
2022-07-14T13:57:57Z,42.805,6.029,13.3064,4.60101,2470.437,2022-7-14T15:59:43Z
2022-07-14T14:01:00Z,42.805,6.029,13.3083,4.60089,2470.45,2022-7-14T16:02:46Z
2022-07-14T14:04:03Z,42.805,6.029,13.3086,4.60110,2470.437,2022-7-14T16:05:49Z
2022-07-14T14:07:06Z,42.805,6.029,13.3093,4.60106,2470.474,2022-7-14T16:08:52Z
2022-07-14T14:10:09Z,42.805,6.029,13.3096,4.60099,2470.45,2022-7-14T16:11:55Z
2022-07-14T14:13:12Z,42.805,6.029,13.3085,4.60096,2470.437,2022-7-14T16:14:59Z
2022-07-14T14:16:15Z,42.805,6.029,13.3093,4.60098,2470.427,2022-7-14T16:18:02Z
2022-07-14T14:19:19Z,42.805,6.029,13.3099,4.60077,2470.45,2022-7-14T16:21:05Z
2022-07-14T14:22:22Z,42.805,6.029,13.3096,4.60064,2470.45,2022-7-14T16:24:08Z
2022-07-14T14:25:25Z,42.805,6.029,13.3089,4.60084,2470.474,2022-7-14T16:27:11Z
2022-07-14T14:28:28Z,42.805,6.029,13.3096,4.60072,2470.437,2022-7-14T16:30:14Z
2022-07-14T14:31:31Z,42.805,6.029,13.3096,4.60075,2470.45,2022-7-14T16:33:17Z
2022-07-14T14:34:34Z,42.805,6.029,13.3085,4.60076,2470.45,2022-7-14T16:36:20Z
2022-07-14T14:37:37Z,42.805,6.029,13.3081,4.60067,2470.474,2022-7-14T16:39:24Z
2022-07-14T14:40:40Z,42.805,6.029,13.3085,4.60069,2470.46,2022-7-14T16:42:27Z
2022-07-14T14:43:44Z,42.805,6.029,13.3083,4.60067,2470.437,2022-7-14T16:45:30Z
2022-07-14T14:46:47Z,42.805,6.029,13.3085,4.60079,2470.46,2022-7-14T16:48:33Z
2022-07-14T14:49:50Z,42.805,6.029,13.3072,4.60075,2470.474,2022-7-14T16:51:36Z
2022-07-14T14:52:53Z,42.805,6.029,13.3074,4.60073,2470.437,2022-7-14T16:54:39Z
2022-07-14T14:55:56Z,42.805,6.029,13.3073,4.60075,2470.483,2022-7-14T16:57:42Z
2022-07-14T14:58:59Z,42.805,6.029,13.3073,4.60074,2470.474,2022-7-14T17:00:45Z
2022-07-14T15:02:02Z,42.805,6.029,13.3063,4.60080,2470.45,2022-7-14T17:03:49Z
2022-07-14T15:05:05Z,42.805,6.029,13.3054,4.60072,2470.45,2022-7-14T17:06:52Z
2022-07-14T15:08:09Z,42.805,6.029,13.3051,4.60079,2470.46,2022-7-14T17:09:55Z
2022-07-14T15:11:12Z,42.805,6.029,13.3058,4.60073,2470.46,2022-7-14T17:12:58Z
2022-07-14T15:14:15Z,42.805,6.029,13.3058,4.60080,2470.45,2022-7-14T17:16:01Z